Skip Page Navigation
NASA JPL Caltech
NASA Logo - Jet Propulsion Laboratory + View the NASA Portal
+ Near-Earth Object (NEO) Program
Search JPL
JPL Home Earth Solar System Stars & Galaxies Technology
JPL Solar System Dynamics
BODIES ORBITS EPHEMERIDES TOOLS PHYSICAL DATA DISCOVERY FAQ SITE MAP
JPL Small-Body Database Browser
Search: [ help ]  
25555 Ratnavarma (1999 XJ169)
Classification: Main-belt Asteroid          SPK-ID: 2025555
Ephemeris | Orbit Diagram | Orbital Elements | Physical Parameters | Discovery Circumstances ]

[ hide orbit diagram ]
Orbit Diagram
Note: Make sure you have Java enabled on your browser to see the applet. This applet is provided as a 3D orbit visualization tool. The applet was implemented using 2-body methods, and hence should not be used for determining accurate long-term trajectories (over several years or decades) or planetary encounter circumstances. For accurate long-term ephemerides, please instead use our Horizons system.
Orbit Viewer

Additional Notes: the orbits shown in the applet are color coded. The planets are white lines, and the asteroid/comet is a blue line. The bright white line indicates the portion of the orbit that is above the ecliptic plane, and the darker portion is below the ecliptic plane. Likewise for the asteroid/comet orbit, the light blue indicates the portion above the ecliptic plane, and the dark blue the portion below the ecliptic plane.

Orbit Viewer applet originally written and kindly provided by Osamu Ajiki (AstroArts), and further modified by Ron Baalke (JPL).


Orbital Elements at Epoch 2456400.5 (2013-Apr-18.0) TDB
Reference: MPO244405 (heliocentric ecliptic J2000)
 Element Value Uncertainty (1-sigma)   Units 
e 0.1195665 n/a  
a 2.8131647 n/a AU
q 2.4768044 n/a AU
i 6.08571 n/a deg
node 41.66527 n/a deg
peri 60.80976 n/a deg
M 283.28384 n/a deg
tp 2456767.7616041
(2014-Apr-20.26160410)
n/a JED
period 1723.4201695
4.72
n/a
n/a
d
yr
n 0.20888696 n/a deg/d
Q 3.1495250 n/a AU
  Orbit Determination Parameters
   # obs. used (total)      571  
   first obs. used      1989-??-??  
   last obs. used      2012-11-07  
   # oppositions      14  
   planetary ephem.      DE403  
   condition code      0  
   fit RMS      0.58  
   data source      MPC:mpn  
   producer      MPCLINUX  

Additional Information
 T_jup = 3.301 

Ephemeris | Orbit Diagram | Orbital Elements | Physical Parameters | Discovery Circumstances ]

Physical Parameter Table
Parameter Symbol Value Units Sigma Reference Notes
absolute magnitude H 14.4 mag n/a PDS3 (MPO 12670)  

25555 Ratnavarma           Discovered 1999 Dec. 10 by the Lincoln Laboratory Near-Earth Asteroid Research Team at Socorro.
Ratna Varma (b. 1992) was awarded second place in the 2009 Intel International Science and Engineering Fair for her medicine and health sciences project. She attends the A. B. Lucas Secondary School, London, Ontario, Canada.
NOTE: some special characters may not display properly (any characters within {} are an attempt to place the proper accent above a character)
Reference: 20100428/MPCPages.arcLast Updated: 2010-06-03

Alternate Designations
 1999 XJ169 = 1989 SG3 
Ephemeris | Orbit Diagram | Orbital Elements | Physical Parameters | Discovery Circumstances ]
ABOUT SSD CREDITS/AWARDS PRIVACY/COPYRIGHT GLOSSARY LINKS
FirstGov 2013-May-22 02:35 UT
(server date/time)  
NASA Home Page
Site Manager:   Donald K. Yeomans
Webmaster  Alan B. Chamberlin